EW5855 Weather Reports


Display with metric or nautical units.
time (UTC)temp
F
wind
direction
speed
MPH
gust
MPH
rain 1hr
in
rain 24hr
in
rain mn
in
humidity
%
barometer
mb
20260905190518 72 44 4.0 10.0 0.00 0.00 0.00 77 1012.1
20260905185534 73 49 4.0 10.0 0.00 0.00 0.00 76 1012.2
20260905184549 72 341 3.0 9.0 0.00 0.00 0.00 78 1012.2
20260905183525 72 37 3.0 9.0 0.00 0.00 0.00 78 1012.1
20260905182541 70 50 6.0 13.0 0.00 0.00 0.00 80 1012.2
20260905181517 70 45 4.0 10.0 0.00 0.00 0.00 81 1012.1
20260905180533 70 49 7.0 14.0 0.00 0.00 0.00 79 1012.2
20260905175549 70 39 3.0 8.0 0.00 0.00 0.00 81 1012.2
20260905174545 70 44 5.0 10.0 0.00 0.00 0.00 80 1012.1
20260905173521 70 49 3.0 11.0 0.00 0.00 0.00 82 1012.2
20260905172517 69 48 4.0 8.0 0.00 0.00 0.00 83 1012.2
20260905171552 69 43 5.0 10.0 0.00 0.00 0.00 84 1012.3
20260905170529 69 36 4.0 9.0 0.00 0.00 0.00 85 1012.2
20260905165525 70 25 4.0 10.0 0.00 0.00 0.00 82 1012.1
20260905164521 70 43 3.0 8.0 0.00 0.00 0.00 84 1012.3
20260905163517 69 1 3.0 7.0 0.00 0.00 0.00 85 1012.4
20260905162533 69 19 4.0 7.0 0.00 0.00 0.00 85 1012.5
20260905161529 69 34 3.0 8.0 0.00 0.00 0.00 86 1012.6
20260905160525 68 31 4.0 10.0 0.00 0.00 0.00 88 1012.6
20260905155522 67 31 3.0 10.0 0.00 0.00 0.00 89 1012.6
20260905154517 67 34 3.0 7.0 0.00 0.00 0.00 91 1012.9
20260905153534 66 31 4.0 9.0 0.00 0.00 0.00 92 1013.0
20260905152550 66 42 5.0 11.0 0.00 0.00 0.00 92 1013.0
20260905151526 67 32 3.0 8.0 0.00 0.00 0.00 90 1013.0
20260905150604 67 36 3.0 9.0 0.00 0.00 0.00 90 1012.9
20260905145520 67 17 3.0 9.0 0.00 0.00 0.00 91 1012.8
20260905144516 66 19 2.0 4.0 0.00 0.00 0.00 92 1012.8
20260905143533 66 21 2.0 4.0 0.00 0.00 0.00 92 1012.9
20260905142528 65 44 3.0 7.0 0.00 0.00 0.00 93 1012.8
20260905141524 65 17 2.0 4.0 0.00 0.00 0.00 94 1012.9
20260905140521 65 43 4.0 10.0 0.00 0.00 0.00 94 1012.9
20260905135518 66 30 4.0 11.0 0.00 0.00 0.00 93 1012.9
20260905134534 66 18 3.0 8.0 0.00 0.00 0.00 92 1012.7
20260905133530 66 16 3.0 7.0 0.00 0.00 0.00 92 1012.8
20260905132526 65 61 6.0 10.0 0.00 0.00 0.00 93 1012.7
20260905131521 65 59 4.0 7.0 0.00 0.00 0.00 93 1012.5
20260905130517 64 58 3.0 6.0 0.00 0.00 0.00 96 1012.5
20260905125533 64 82 1.0 3.0 0.00 0.00 0.00 98 1012.5
20260905124530 62 0.0 0.0 0.00 0.00 0.00 99 1012.6
20260905123525 61 0.0 0.0 0.00 0.00 0.00 99 1012.4
20260905122521 61 0.0 0.0 0.00 0.00 0.00 99 1012.4
20260905121516 59 0.0 0.0 0.00 0.00 0.00 99 1012.4
20260905120533 58 0.0 0.0 0.00 0.00 0.00 99 1012.4
20260905115528 57 0.0 0.0 0.00 0.00 0.00 99 1012.3
20260905114525 57 0.0 0.0 0.00 0.00 0.00 99 1012.2
20260905113520 56 0.0 0.0 0.00 0.00 0.00 99 1012.2
20260905112517 56 0.0 0.0 0.00 0.00 0.00 99 1012.0
20260905111533 56 196 1.0 2.0 0.00 0.00 0.00 99 1012.1
20260905110529 55 203 1.0 2.0 0.00 0.00 0.00 99 1011.9
20260905105524 55 199 1.0 1.0 0.00 0.00 0.00 99 1011.8
20260905104621 54 211 1.0 1.0 0.00 0.00 0.00 99 1011.6
20260905103518 54 0.0 0.0 0.00 0.00 0.00 99 1011.5
20260905102533 54 0.0 0.0 0.00 0.00 0.00 99 1011.4
20260905101529 54 0.0 0.0 0.00 0.00 0.00 99 1011.4
20260905100525 54 0.0 0.0 0.00 0.00 0.00 99 1011.5
20260905095540 54 0.0 0.0 0.00 0.00 0.00 99 1011.4
20260905094516 54 0.0 0.0 0.00 0.00 0.00 99 1011.3
20260905093531 54 0.0 0.0 0.00 0.00 0.00 99 1011.4
20260905092527 54 0.0 0.0 0.00 0.00 0.00 99 1011.2
20260905091523 54 0.0 0.0 0.00 0.00 0.00 99 1011.3
20260905090520 54 0.0 0.0 0.00 0.00 0.00 99 1011.3
20260905085516 54 0.0 0.0 0.00 0.00 0.00 99 1011.2
20260905084532 55 0.0 0.0 0.00 0.00 0.00 99 1011.1
20260905083527 55 0.0 0.0 0.00 0.00 0.00 99 1011.0
20260905082523 55 0.0 0.0 0.00 0.00 0.00 99 1011.1
20260905081519 55 0.0 0.0 0.00 0.00 0.00 99 1011.1
20260905080516 55 0.0 0.0 0.00 0.00 0.00 99 1011.1
20260905075531 56 0.0 0.0 0.00 0.00 0.00 99 1011.1
20260905074608 56 0.0 0.0 0.00 0.00 0.00 99 1010.9
20260905073604 56 0.0 0.0 0.00 0.00 0.00 99 1011.0
20260905072520 56 0.0 0.0 0.00 0.00 0.00 99 1011.0
20260905071536 56 220 2.0 2.0 0.00 0.00 0.00 99 1011.2
20260905070533 56 218 1.0 2.0 0.00 0.00 0.00 99 1011.3
20260905065528 56 236 1.0 2.0 0.00 0.00 0.00 99 1011.5
20260905064525 56 0.0 0.0 0.00 0.00 0.00 99 1011.4
20260905063521 57 218 0.0 1.0 0.00 0.00 0.00 99 1011.4
20260905062517 57 192 1.0 2.0 0.00 0.00 0.00 99 1011.5
20260905061533 57 204 2.0 3.0 0.00 0.00 0.00 99 1011.5
20260905060529 57 205 2.0 3.0 0.00 0.00 0.00 99 1011.6
20260905055525 58 225 1.0 2.0 0.00 0.00 0.00 99 1011.5
20260905054521 58 228 1.0 2.0 0.00 0.00 0.00 99 1011.6
20260905053537 58 181 0.0 1.0 0.00 0.00 0.00 99 1011.6
20260905052533 58 240 1.0 1.0 0.00 0.00 0.00 99 1011.6
20260905051529 59 227 0.0 1.0 0.00 0.00 0.00 99 1011.5
20260905050525 59 0.0 0.0 0.00 0.00 0.00 99 1011.5
20260905045518 60 205 1.0 2.0 0.00 0.00 0.00 99 1011.5
20260905044534 60 206 1.0 2.0 0.00 0.00 0.00 99 1011.6
20260905043549 60 215 1.0 2.0 0.00 0.00 0.00 99 1011.8
20260905042525 61 230 1.0 1.0 0.00 0.00 0.00 99 1011.9
20260905041521 61 0.0 0.0 0.00 0.00 0.00 99 1012.1
20260905040516 62 217 0.0 1.0 0.00 0.00 0.00 99 1011.9
20260905035532 62 218 2.0 3.0 0.00 0.00 0.00 99 1011.8
20260905034528 63 213 2.0 3.0 0.00 0.00 0.00 99 1011.7
20260905033523 63 216 2.0 3.0 0.00 0.00 0.00 99 1011.8
20260905032539 63 226 1.0 2.0 0.00 0.00 0.00 99 1011.8
20260905031535 64 210 0.0 1.0 0.00 0.00 0.00 99 1011.7
20260905030531 64 203 1.0 1.0 0.00 0.00 0.00 98 1011.7
20260905025527 65 211 2.0 3.0 0.00 0.00 0.00 98 1011.7
20260905024543 65 189 1.0 2.0 0.00 0.00 0.00 97 1011.9
20260905023519 65 219 0.0 1.0 0.00 0.00 0.00 97 1011.7
20260905022515 66 179 0.0 1.0 0.00 0.00 0.00 97 1011.7
20260905021551 66 184 0.0 1.0 0.00 0.00 0.00 96 1011.9
20260905020528 66 197 1.0 2.0 0.00 0.00 0.00 96 1011.9
20260905015524 67 199 0.0 1.0 0.00 0.00 0.00 94 1011.7
20260905014520 67 0.0 0.0 0.00 0.00 0.00 92 1011.9
20260905013517 68 134 0.0 1.0 0.00 0.00 0.00 88 1011.9
20260905012533 68 40 0.0 2.0 0.00 0.00 0.00 87 1012.0
20260905011529 67 255 0.0 2.0 0.00 0.00 0.00 91 1012.0
20260905010525 67 54 0.0 1.0 0.00 0.00 0.00 93 1011.8
20260905005601 66 127 0.0 1.0 0.00 0.00 0.00 97 1011.8
20260905004517 66 50 2.0 4.0 0.00 0.00 0.00 98 1011.8
20260905003533 66 0.0 0.0 0.00 0.00 0.00 98 1011.6
20260905002529 66 0.0 0.0 0.00 0.00 0.00 97 1011.5
20260905001525 67 202 1.0 2.0 0.00 0.00 0.00 96 1011.5
20260905000520 67 204 1.0 2.0 0.00 0.00 0.00 97 1011.5
20260904235536 67 211 1.0 2.0 0.00 0.00 0.00 96 1011.3
20260904234532 68 211 1.0 3.0 0.00 0.00 0.00 95 1011.3
20260904233529 68 0.0 0.0 0.00 0.00 0.00 94 1011.0
20260904232545 69 0.0 0.0 0.00 0.00 0.00 93 1011.0
20260904231521 70 0.0 0.0 0.00 0.00 0.00 91 1011.0
20260904230518 70 0.0 0.0 0.00 0.00 0.00 90 1010.9
20260904225534 71 0.0 0.0 0.00 0.00 0.00 87 1010.9
20260904224530 72 0.0 0.0 0.00 0.00 0.00 83 1011.0
20260904223526 73 0.0 0.0 0.00 0.00 0.00 81 1010.9
20260904222522 73 0.0 0.0 0.00 0.00 0.00 83 1010.9
20260904221518 72 0.0 0.0 0.00 0.00 0.00 82 1010.8
20260904220534 74 0.0 0.0 0.00 0.00 0.00 81 1010.8
20260904215530 74 0.0 0.0 0.00 0.00 0.00 79 1010.7
20260904214526 74 0.0 0.0 0.00 0.00 0.00 78 1010.9
20260904213542 75 258 0.0 2.0 0.00 0.00 0.00 77 1010.7
20260904212539 75 345 2.0 8.0 0.00 0.00 0.00 71 1010.8
20260904211555 76 273 1.0 3.0 0.00 0.00 0.00 73 1010.9
20260904210530 76 51 1.0 2.0 0.00 0.00 0.00 72 1011.0
20260904205526 76 42 2.0 4.0 0.00 0.00 0.00 71 1010.9
20260904204522 76 38 1.0 3.0 0.00 0.00 0.00 71 1010.9
20260904203518 77 6 2.0 4.0 0.00 0.00 0.00 69 1010.9
20260904202535 78 13 2.0 3.0 0.00 0.00 0.00 69 1010.9
20260904201551 77 296 2.0 6.0 0.00 0.00 0.00 70 1010.9
20260904200528 77 41 3.0 8.0 0.00 0.00 0.00 70 1011.0
20260904195524 79 357 3.0 8.0 0.00 0.00 0.00 65 1010.9
20260904194539 79 302 3.0 6.0 0.00 0.00 0.00 62 1010.8
20260904193538 78 7 2.0 4.0 0.00 0.00 0.00 65 1010.8
20260904192531 79 15 1.0 4.0 0.00 0.00 0.00 65 1010.9
20260904191527 79 343 1.0 4.0 0.00 0.00 0.00 63 1011.1